Location: Diamond O Boy Scout Camp
(37.8649°N, 119.8668°W)
Time: 21:03:18
(UTC+00:00)

USA 234 - Visible Passes

Search period start: 13 September 2024 00:00
Search period end: 23 September 2024 00:00
Orbit: 1100 x 1107 km, 123.0° (Epoch: 08 July)

Date Brightness Start Highest point End Pass type
(mag) Time Alt. Az. Time Alt. Az. Time Alt. Az.
14 Sep 5.5 03:09:08 10° SSW 03:13:48 21° WSW 03:18:31 10° WNW visible
15 Sep 4.4 02:24:29 10° SSE 02:30:41 45° SW 02:36:56 10° WNW visible
16 Sep 5.4 03:26:37 10° SSW 03:31:17 21° WSW 03:35:57 10° WNW visible
17 Sep 4.3 02:41:58 10° SSE 02:48:10 45° SW 02:54:24 10° WNW visible
18 Sep 5.3 03:44:07 10° SSW 03:48:44 20° WSW 03:53:24 10° WNW visible
19 Sep 4.2 02:59:26 10° SSE 03:05:37 45° SW 03:11:51 10° WNW visible
20 Sep 3.4 02:16:10 10° SE 02:22:44 88° SW 02:29:19 10° NW visible
20 Sep 5.3 04:01:36 10° SSW 04:06:12 20° WSW 04:10:51 10° WNW visible
21 Sep 4.2 03:16:54 10° SSE 03:23:05 44° SW 03:29:19 10° WNW visible
22 Sep 3.3 02:33:38 10° SE 02:40:11 88° SW 02:46:47 10° NW visible
22 Sep 5.2 04:19:05 10° SSW 04:23:40 20° WSW 04:28:17 10° WNW visible
